Lid_Strength_Index
9 8 7 8 8 8 8 7 6 7 7 6 6 4 4 4 4 4 4 4 4 4
9 8 7 7 8 8 7 7 6 6 6 5 5 4 4 4 4 4 4 4 4 4
10 9 7 7 9 8 8 7 7 7 7 6 6 4 4 4 4 5 4 4 4 4
10 10 8 7 8 8 7 7 6 5 6 6 6 5 5 4 4 4 5 4 4 4
10 10 10 8 7 7 8 7 7 6 6 6 6 6 6 6 5 5 5 4 5 5
10 11 10 9 8 7 7 7 7 7 8 7 7 7 6 7 7 6 6 6 6 5
10 10 11 10 9 8 8 7 7 7 7 8 8 7 7 8 7 7 7 7 7 7
10 10 11 11 10 10 9 9 9 8 8 8 8 8 8 8 8 8 8 7 7 6
11 11 11 11 11 11 10 10 10 10 10 10 10 10 9 8 8 8 8 8 7 6
12 12 12 12 12 12 11 11 11 11 11 11 11 10 9 8 8 8 8 8 8 7
12 12 12 12 12 12 11 11 11 11 11 11 11 11 10 9 8 8 8 7 8 7
12 13 13 13 13 13 12 12 12 12 12 12 11 11 10 9 9 9 9 9 9 9
12 12 13 13 13 13 13 13 13 13 13 13 12 11 11 10 9 10 11 11 11 10
12 12 12 13 13 13 13 13 13 13 12 13 12 12 11 11 11 11 11 12 12 11